Regional Weather Roundup
Issued by NWS

Home | Current Version | Previous Version | Graphics & Text | Print | Product List | Glossary On
Versions: 1 2 3 4 5 6 7 8 9 10 11 12 13 14 15 16 17 18 19 20 21 22 23 24 25 26 27 28 29 30 31 32 33 34 35 36 37 38 39 40 41 42 43 44 45 46 47 48 49 50
000
ASUS43 KIND 040909
RWRIN

WEATHER ROUNDUP FOR INDIANA
NATIONAL WEATHER SERVICE INDIANAPOLIS IN
500 AM EDT WED MAY 04 2016

NOTE: "FAIR" INDICATES FEW OR NO CLOUDS BELOW 12,000 FEET WITH NO
SIGNIFICANT WEATHER AND/OR OBSTRUCTIONS TO VISIBILITY.

* - STATION DOES NOT REPORT WEATHER SUCH AS PRECIPITATION OR FOG.

+ - STATION NOT QUALITY CONTROLLED BY THE NATIONAL WEATHER SERVICE.
    USE DATA WITH CAUTION...ESPECIALLY DEWPOINT AND RELATIVE
    HUMIDITY OBSERVATIONS.

INZ001>003-010>013-019-020-041000-
NORTHWEST INDIANA

CITY           SKY/WX    TMP DP  RH WIND       PRES   REMARKS
GARY /AIRPORT/ RAIN      51  51 100 N9        29.62F
KNOX *+        CLOUDY    50  43  76 W8        29.63F
LA PORTE +     RAIN      51  51 100 W5        29.62F
MICHIGAN CITY+ RAIN      48  48 100 SW5       29.62F
MONTICELLO +   LGT RAIN  53  42  68 SW10      29.65F
RENSSELAER +   RAIN      52  48  87 SW13G18   29.64F
VALPARAISO     CLOUDY    50  48  93 SW6       29.61F

$$

LMZ046-743>745-041000-
SOUTHERN LAKE MICHIGAN

STATION/POSITION TIME  TEMP    WIND        PRES    WAVE
                       AIR SEA DIR/SP/G            HT
                 (UTC) (F)     (DEG/KT/KT) (MB)    (FT)
BURNS HARBOR     0802   52     250/ 13     1004.4R
MICHIGAN CITY    0800   51     230/ 25/ 29   N/A

$$

INZ004-005-014>016-021>024-041000-
NORTH CENTRAL INDIANA

CITY           SKY/WX    TMP DP  RH WIND       PRES   REMARKS
GOSHEN         CLOUDY    53  44  71 S12       29.62F
LOGANSPORT +   CLOUDY    52  45  76 SW9       29.66F
PERU/GRISSOM   CLOUDY    52  46  82 SW10      29.64F
ROCHESTER +    MOCLDY    55  46  71 SW7       29.65F
SOUTH BEND     LGT RAIN  52  44  74 W14       29.62F
WARSAW +       CLOUDY    54  43  66 SW6       29.64F

$$

INZ006>009-017-018-025>027-041000-
NORTHEAST INDIANA

CITY           SKY/WX    TMP DP  RH WIND       PRES   REMARKS
ANGOLA *+      PTCLDY    52  45  76 SW7       29.63F
AUBURN +       CLOUDY    52  43  71 S3        29.65F
FORT WAYNE     CLOUDY    51  44  77 SW9       29.66F
HUNTINGTON +   CLOUDY    52  44  75 SW8       29.66F

$$

INZ028-029-035-036-043>045-051>053-041000-
WEST CENTRAL INDIANA

CITY           SKY/WX    TMP DP  RH WIND       PRES   REMARKS
CRAWFORDSVL +  CLOUDY    49  46  88 SW10      29.69F
GREENCASTLE +  CLOUDY    50  45  81 SW3       29.72F
LAFAYETTE      CLOUDY    52  44  74 SW7       29.66F
TERRE HAUTE    PTCLDY    52  43  71 SW10      29.72F

$$

INZ030>032-037>040-046>048-054>057-064-065-041000-
CENTRAL INDIANA

CITY           SKY/WX    TMP DP  RH WIND       PRES   REMARKS
CP ATTERBURY + MOCLDY    50  45  81 SW7       29.74F
FISHERS *+     PTCLDY    50  46  87 SW7       29.70F
FRANKFORT +      N/A     52  38  58 SW10      29.69F
GREENWOOD *+   PTCLDY    52  45  76 W8        29.73F
INDIANAPOLIS   CLOUDY    51  44  77 SW10      29.70F
-EAGLE CREEK   PTCLDY    52  44  74 SW7       29.70F
KOKOMO *+      CLOUDY    54  43  66 SW12G18   29.66F
MARION +       MOCLDY    50  44  82 SW9       29.69F
SHELBYVILLE    CLOUDY    51  46  83 S7        29.72F
ZIONSVILLE +   CLOUDY    51  44  77 SW12      29.70F

$$

INZ033-034-041-042-049-050-058-059-041000-
EAST CENTRAL INDIANA

CITY           SKY/WX    TMP DP  RH WIND       PRES   REMARKS
MUNCIE         PTCLDY    54  44  69 SW7       29.69F

$$

INZ060-061-067>069-081>083-085>088-041000-
SOUTHWEST INDIANA

CITY           SKY/WX    TMP DP  RH WIND       PRES   REMARKS
EVANSVILLE     CLEAR     47  43  86 SW5       29.81F
HUNTINGBURG *+ CLEAR     48  43  81 SW7       29.80F
WASHINGTON +   MOCLDY    52  46  77 SW10      29.77F

$$

INZ062-063-066-070>080-084-089>092-041000-
SOUTH CENTRAL AND SOUTHEAST INDIANA

CITY           SKY/WX    TMP DP  RH WIND       PRES   REMARKS
BLOOMINGTON    PTCLDY    51  43  74 SW9       29.75F
MADISON *+     CLOUDY    50  45  81 SW3       29.79F
SEYMOUR +      CLOUDY    52  45  76 CALM      29.76F

$$




USA.gov is the U.S. government's official web portal to all federal, state and local government web resources and services.